User: anonymous   Login
Location: Oshawa
(43.9000°N, 78.8670°W)
Time: 16:48:39
(UTC-04:00)
Language:

CARTOSAT-1 - Orbit

View from above orbital plane
View from above orbital plane
View from above satellite
View from above satellite

Ground track
Ground track

The orbit data is extracted from the following two-line orbital elements,

1 28649U 05017A   15088.44694992  .00001898  00000-0  23716-3 0  9999
2 28649 097.8011 161.5501 0002484 118.4055 241.7415 14.83487089535782
Epoch (UTC): 29 March 2015 10:43:36
Eccentricity: 0.0002484
inclination: 97.8011°
perigee height: 616 km
apogee height: 620 km
right ascension of ascending node: 161.5501°
argument of perigee: 118.4055°
revolutions per day: 14.83487089
mean anomaly at epoch: 241.7415°
orbit number at epoch: 53578

The dashed part of the orbit path shows where the satellite is in the earth's shadow,  

DLR